Tracking 35274 objects as of 10-Sep-2026
HD Live streaming from Space Station
objects crossing your sky now

OBJECT AG


OBJECT AG is no longer on orbit


NORAD ID: 57034
Int'l Code: 2023-085AG
Launch date: June 15, 2023
Source: People's Republic of China (PRC)
Launch site: Taiyaun Space Center, China (TSC)
Decay date: 2025-10-12
Your satellite tracking list
Your tracking list is empty




NASA's NSSDC Master Catalog

Two Line Element Set (TLE):
1 57034U 23085AG  25285.41158435  .18571295  26173-5  37656-3 0  9992
2 57034  97.4630  48.7551 0009427 271.4469  88.5754 16.46511980130030
Source of the keplerian elements: AFSPC